Location: DARK SKY Beskydy - Park tmavé oblohy, www.darkskybeskydy.cz
(49.4926°N, 18.5016°E)
Time: 11:14:08
(UTC+02:00)

BlueWalker 3 - Pass Details

Date: 26 June 2024
Orbit: 480 x 491 km, 53.2° (Epoch: 23 July)

Event Time Altitude Azimuth Distance (km) Brightness Sun altitude
Rises 23:39:23 0° 291° (WNW) 2,541 6.1 -15.6°
Reaches altitude 10° 23:41:34 10° 295° (WNW) 1,659 5.1 -15.7°
Maximum altitude 23:45:17 66° 18° (NNE) 529 2.2 -15.8°
Enters shadow 23:48:54 11° 101° (E) 1,617 4.3 -16.0°
